When you browse on this site, cookies collect data to enhance your experience and personalize the content and advertising you see.
Visit our Privacy Policy to learn more. By continuing to use the site, you agree to this use of cookies and data.
  • în România
  • Lista ţărilor
  • Pe 7 zile
  • Temperatura apei
  • Meteo pe hartă
  • Widget-uri
  • user-avatar
    Intrare

    Meteo pe oră la Northallerton

    Astăzi, 2 Iunie, Marţi

    Timp Temperatura Precipitaţii Vânt Presiune Umiditate
    00:00 +9°C° 0 mm 0 m/s 764 mmHg 83%
    01:00 +9°C° 0 mm 0 m/s 764 mmHg 82%
    02:00 +9°C° 0 mm 1 m/s 764 mmHg 82%
    03:00 +9°C° 0 mm 1 m/s 763 mmHg 81%
    04:00 +10°C° 0 mm 1 m/s 763 mmHg 78%
    05:00 +11°C° 0 mm 0 m/s 763 mmHg 74%
    06:00 +12°C° 0 mm 0 m/s 763 mmHg 71%
    07:00 +14°C° 0 mm 0 m/s 762 mmHg 66%
    08:00 +15°C° 0 mm 0 m/s 762 mmHg 61%
    09:00 +17°C° 0 mm 0 m/s 762 mmHg 56%
    10:00 +20°C° 0 mm 1 m/s 762 mmHg 52%
    11:00 +21°C° 0 mm 1 m/s 761 mmHg 49%
    12:00 +22°C° 0 mm 1 m/s 761 mmHg 45%
    13:00 +22°C° 0 mm 1 m/s 760 mmHg 47%
    14:00 +22°C° 0 mm 1 m/s 760 mmHg 48%
    15:00 +23°C° 0 mm 1 m/s 759 mmHg 49%
    16:00 +22°C° 0.2 mm 1 m/s 759 mmHg 56%
    17:00 +20°C° 0.2 mm 2 m/s 758 mmHg 63%
    18:00 +19°C° 0.2 mm 2 m/s 758 mmHg 70%
    19:00 +19°C° 0.1 mm 1 m/s 757 mmHg 73%
    20:00 +16°C° 0.1 mm 1 m/s 757 mmHg 76%
    21:00 +14°C° 0.1 mm 1 m/s 757 mmHg 79%
    22:00 +14°C° 0.2 mm 1 m/s 756 mmHg 81%
    23:00 +14°C° 0.2 mm 1 m/s 756 mmHg 83%

    Mâine, 3 Iunie, Miercuri

    Timp Temperatura Precipitaţii Vânt Presiune Umiditate
    00:00 +13°C° 0.2 mm 1 m/s 756 mmHg 85%
    01:00 +13°C° 0.5 mm 2 m/s 755 mmHg 89%
    02:00 +12°C° 0.5 mm 2 m/s 755 mmHg 92%
    03:00 +10°C° 0.5 mm 3 m/s 754 mmHg 96%
    04:00 +10°C° 1 mm 3 m/s 754 mmHg 96%
    05:00 +10°C° 1 mm 4 m/s 754 mmHg 96%
    06:00 +10°C° 1 mm 4 m/s 754 mmHg 96%
    07:00 +9°C° 0.6 mm 5 m/s 755 mmHg 95%
    08:00 +9°C° 0.6 mm 6 m/s 755 mmHg 94%
    09:00 +9°C° 0.6 mm 7 m/s 755 mmHg 94%
    10:00 +9°C° 0.1 mm 7 m/s 755 mmHg 92%
    11:00 +10°C° 0.1 mm 6 m/s 755 mmHg 91%
    12:00 +10°C° 0.1 mm 6 m/s 754 mmHg 89%
    13:00 +10°C° 0.1 mm 6 m/s 754 mmHg 87%
    14:00 +11°C° 0.1 mm 6 m/s 754 mmHg 85%
    15:00 +11°C° 0.1 mm 6 m/s 754 mmHg 83%
    16:00 +11°C° 0.2 mm 7 m/s 754 mmHg 84%
    17:00 +11°C° 0.2 mm 7 m/s 754 mmHg 84%
    18:00 +12°C° 0.2 mm 7 m/s 754 mmHg 85%
    19:00 +11°C° 0.3 mm 7 m/s 754 mmHg 88%
    20:00 +10°C° 0.3 mm 6 m/s 754 mmHg 90%
    21:00 +9°C° 0.3 mm 6 m/s 754 mmHg 93%
    22:00 +9°C° 0.1 mm 5 m/s 754 mmHg 93%
    23:00 +8°C° 0.1 mm 5 m/s 753 mmHg 92%

    Poimâine, 4 Iunie, Joi

    Timp Temperatura Precipitaţii Vânt Presiune Umiditate
    00:00 +7°C° 0.1 mm 4 m/s 753 mmHg 91%
    01:00 +6°C° 0 mm 4 m/s 753 mmHg 92%
    02:00 +6°C° 0 mm 4 m/s 752 mmHg 92%
    03:00 +5°C° 0 mm 4 m/s 752 mmHg 92%
    04:00 +7°C° 0 mm 3 m/s 751 mmHg 90%
    05:00 +7°C° 0 mm 3 m/s 751 mmHg 88%
    06:00 +8°C° 0 mm 3 m/s 751 mmHg 86%
    07:00 +9°C° 0 mm 3 m/s 750 mmHg 79%
    08:00 +10°C° 0 mm 3 m/s 750 mmHg 73%
    09:00 +11°C° 0 mm 3 m/s 749 mmHg 66%
    10:00 +12°C° 0.1 mm 3 m/s 749 mmHg 65%
    11:00 +12°C° 0.1 mm 3 m/s 749 mmHg 65%
    12:00 +13°C° 0.1 mm 3 m/s 748 mmHg 65%
    13:00 +13°C° 0.3 mm 3 m/s 748 mmHg 65%
    14:00 +14°C° 0.3 mm 2 m/s 747 mmHg 66%
    15:00 +15°C° 0.3 mm 2 m/s 747 mmHg 67%
    16:00 +13°C° 0.7 mm 2 m/s 746 mmHg 75%
    17:00 +12°C° 0.7 mm 2 m/s 746 mmHg 84%
    18:00 +9°C° 0.7 mm 3 m/s 746 mmHg 92%
    19:00 +9°C° 1.1 mm 2 m/s 746 mmHg 93%
    20:00 +8°C° 1.1 mm 2 m/s 746 mmHg 93%
    21:00 +9°C° 1.1 mm 1 m/s 746 mmHg 94%
    22:00 +8°C° 0.2 mm 1 m/s 745 mmHg 94%
    23:00 +7°C° 0.2 mm 2 m/s 745 mmHg 93%

    5 Iunie, Vineri

    Timp Temperatura Precipitaţii Vânt Presiune Umiditate
    00:00 +7°C° 0.2 mm 2 m/s 745 mmHg 93%
    01:00 +5°C° 0 mm 3 m/s 745 mmHg 93%
    02:00 +5°C° 0 mm 3 m/s 745 mmHg 92%
    03:00 +4°C° 0 mm 3 m/s 745 mmHg 92%
    04:00 +5°C° 0 mm 4 m/s 745 mmHg 90%
    05:00 +5°C° 0 mm 4 m/s 744 mmHg 88%
    06:00 +6°C° 0 mm 4 m/s 744 mmHg 86%
    07:00 +7°C° 0 mm 5 m/s 744 mmHg 77%
    08:00 +9°C° 0 mm 6 m/s 744 mmHg 67%
    09:00 +10°C° 0 mm 6 m/s 744 mmHg 58%
    10:00 +11°C° 0.1 mm 6 m/s 744 mmHg 58%
    11:00 +11°C° 0.1 mm 6 m/s 744 mmHg 58%
    12:00 +13°C° 0.1 mm 6 m/s 743 mmHg 58%
    13:00 +12°C° 0.5 mm 7 m/s 743 mmHg 62%
    14:00 +12°C° 0.5 mm 7 m/s 743 mmHg 66%
    15:00 +11°C° 0.5 mm 8 m/s 743 mmHg 70%
    16:00 +11°C° 0.5 mm 7 m/s 743 mmHg 73%
    17:00 +10°C° 0.5 mm 7 m/s 743 mmHg 76%
    18:00 +10°C° 0.5 mm 6 m/s 743 mmHg 78%
    19:00 +9°C° 0.2 mm 6 m/s 743 mmHg 80%
    20:00 +7°C° 0.2 mm 5 m/s 743 mmHg 81%
    21:00 +6°C° 0.2 mm 5 m/s 743 mmHg 83%
    22:00 +5°C° 0 mm 5 m/s 743 mmHg 82%
    23:00 +5°C° 0 mm 5 m/s 743 mmHg 82%

    6 Iunie, Sâmbătă

    Timp Temperatura Precipitaţii Vânt Presiune Umiditate
    00:00 +3°C° 0 mm 6 m/s 743 mmHg 82%
    01:00 +3°C° 0 mm 6 m/s 743 mmHg 81%
    02:00 +3°C° 0 mm 6 m/s 743 mmHg 80%
    03:00 +3°C° 0 mm 7 m/s 742 mmHg 78%
    04:00 +4°C° 0 mm 7 m/s 742 mmHg 79%
    05:00 +4°C° 0 mm 8 m/s 742 mmHg 79%
    06:00 +5°C° 0 mm 8 m/s 742 mmHg 79%
    07:00 +6°C° 0 mm 8 m/s 742 mmHg 78%
    08:00 +7°C° 0 mm 9 m/s 742 mmHg 76%
    09:00 +7°C° 0 mm 9 m/s 742 mmHg 75%
    10:00 +8°C° 0 mm 9 m/s 743 mmHg 74%
    11:00 +10°C° 0 mm 9 m/s 743 mmHg 74%
    12:00 +10°C° 0 mm 9 m/s 743 mmHg 73%
    13:00 +10°C° 0 mm 9 m/s 743 mmHg 73%
    14:00 +10°C° 0 mm 9 m/s 743 mmHg 73%
    15:00 +9°C° 0 mm 10 m/s 743 mmHg 73%
    16:00 +10°C° 0.2 mm 9 m/s 743 mmHg 77%
    17:00 +8°C° 0.2 mm 9 m/s 743 mmHg 80%
    18:00 +9°C° 0.2 mm 8 m/s 743 mmHg 84%
    19:00 +9°C° 0.5 mm 8 m/s 743 mmHg 87%
    20:00 +9°C° 0.5 mm 7 m/s 743 mmHg 89%
    21:00 +9°C° 0.5 mm 7 m/s 743 mmHg 92%
    22:00 +8°C° 0.2 mm 6 m/s 743 mmHg 92%
    23:00 +8°C° 0.2 mm 5 m/s 743 mmHg 93%

    7 Iunie, Duminică

    Timp Temperatura Precipitaţii Vânt Presiune Umiditate
    00:00 +8°C° 0.2 mm 4 m/s 743 mmHg 93%
    01:00 +9°C° 0 mm 3 m/s 743 mmHg 93%
    02:00 +8°C° 0 mm 3 m/s 743 mmHg 93%
    03:00 +8°C° 0 mm 3 m/s 743 mmHg 94%
    04:00 +8°C° 0 mm 3 m/s 744 mmHg 93%
    05:00 +9°C° 0 mm 3 m/s 744 mmHg 92%
    06:00 +10°C° 0 mm 4 m/s 744 mmHg 91%
    07:00 +11°C° 0.1 mm 4 m/s 744 mmHg 86%
    08:00 +12°C° 0.1 mm 5 m/s 744 mmHg 81%
    09:00 +13°C° 0.1 mm 6 m/s 744 mmHg 77%
    10:00 +13°C° 0.4 mm 6 m/s 744 mmHg 80%
    11:00 +11°C° 0.4 mm 6 m/s 744 mmHg 84%
    12:00 +11°C° 0.4 mm 6 m/s 744 mmHg 88%
    13:00 +10°C° 0.3 mm 6 m/s 744 mmHg 88%
    14:00 +10°C° 0.3 mm 6 m/s 744 mmHg 89%
    15:00 +10°C° 0.3 mm 6 m/s 744 mmHg 90%
    16:00 +10°C° 0.4 mm 6 m/s 744 mmHg 91%
    17:00 +10°C° 0.4 mm 5 m/s 744 mmHg 92%
    18:00 +10°C° 0.4 mm 5 m/s 744 mmHg 92%
    19:00 +10°C° 0.1 mm 4 m/s 745 mmHg 93%
    20:00 +8°C° 0.1 mm 4 m/s 746 mmHg 93%
    21:00 +9°C° 0.1 mm 3 m/s 746 mmHg 94%
    22:00 +8°C° 0 mm 3 m/s 746 mmHg 94%
    23:00 +8°C° 0 mm 3 m/s 747 mmHg 94%
    Arată mai mult